Location: Blue Moon Observatory
(43.0710°N, 82.8810°W)
Time: 14:41:44
(UTC-05:00)

Amateur Radio Satellites - All Passes

Search period start: 23 January 2018 14:11
Search period end: 24 January 2018 14:11
Location: Blue Moon Observatory, 43.0710°N, 82.8810°W

Satellite Date Start Highest point End Downlink Frequencies (MHz)
Time Altitude Azimuth
AO-7 23 Jan 14:16:15 14:24:15 53° 63° (ENE) 14:32:19 .
DX 1 23 Jan 14:17:52 14:22:05 49° 100° (E) 14:26:18 434.975-435.025
Oscar 19 23 Jan 14:28:58 14:32:45 20° 268° (W) 14:36:34 437.125/150
Gurwin Techsat 1B 23 Jan 14:37:36 14:41:45 23° 267° (W) 14:45:55 435.225
50 SAT 23 Jan 14:40:27 14:43:35 84° 279° (W) 14:46:41 437.505
ITUPSAT 1 23 Jan 14:52:07 14:53:54 12° 89° (E) 14:55:40 437.325
MOZHAYETS 4 23 Jan 14:53:49 14:57:30 23° 94° (E) 15:01:08
BEESAT 23 Jan 15:27:51 15:31:59 28° 96° (E) 15:36:06 436.000
RS-15 23 Jan 15:35:36 15:46:51 45° 38° (NE) 15:57:29 29.354- 29.394
UKube-1 23 Jan 15:35:52 15:39:53 39° 290° (WNW) 15:43:53 .
ITAMSAT 1 23 Jan 15:39:39 15:44:49 76° 257° (WSW) 15:50:00 435.822/435.867
DX 1 23 Jan 15:55:04 15:57:53 17° 297° (WNW) 16:00:42 434.975-435.025
M-CUBED/EXP-1 PRIME 23 Jan 15:58:16 16:02:23 50° 68° (ENE) 16:06:15 437.505
AO-7 23 Jan 16:09:39 16:17:13 37° 262° (W) 16:24:51 .
DOVE 4 23 Jan 16:10:00 16:14:07 52° 73° (ENE) 16:18:09 437.250
ITUPSAT 1 23 Jan 16:27:26 16:32:16 77° 285° (WNW) 16:37:04 437.325
MOZHAYETS 4 23 Jan 16:30:28 16:34:45 37° 290° (WNW) 16:38:58
NO-84 23 Jan 16:37:37 16:40:46 74° 140° (SE) 16:43:44 435.350 FM
BEESAT 3 23 Jan 16:38:14 16:40:34 15° 40° (NE) 16:42:54 437.485
CUBESAT XI-V 23 Jan 16:41:06 16:45:43 75° 103° (ESE) 16:50:17 437.345
KAITUO 1B 23 Jan 16:43:39 16:44:41 11° 63° (ENE) 16:45:43 145.475/437.950
NUDT-PHONESAT 23 Jan 16:48:38 16:50:00 12° 64° (ENE) 16:51:22 437.300
XW-2F 23 Jan 16:49:08 16:51:37 17° 66° (ENE) 16:54:06 145.980 - 146.000
HO-68 23 Jan 16:56:39 17:01:47 22° 55° (NE) 17:06:56 435.675
XW-2D 23 Jan 17:00:44 17:03:53 25° 69° (ENE) 17:07:03 145.860 - 145.880
BEESAT 23 Jan 17:05:28 17:09:45 33° 292° (WNW) 17:14:00 436.000
PCSat 23 Jan 17:16:37 17:20:45 22° 43° (NE) 17:24:52 145.827
XW-2B 23 Jan 17:18:00 17:21:33 37° 72° (ENE) 17:25:06 145.730 - 145.750
BEESAT 2 23 Jan 17:33:32 17:36:02 16° 40° (NE) 17:38:31 435.950
CUTE-I 23 Jan 17:34:17 17:39:26 55° 71° (ENE) 17:44:37 437.470
M-CUBED/EXP-1 PRIME 23 Jan 17:34:28 17:36:56 15° 262° (W) 17:39:18 437.505
KKS-1 23 Jan 17:37:12 17:41:25 40° 99° (E) 17:45:37 437.445
SEEDS 23 Jan 17:37:57 17:39:45 13° 62° (ENE) 17:41:32 437.485
STARS 23 Jan 17:45:03 17:48:17 20° 94° (E) 17:51:29 437.465
XW-2C 23 Jan 17:48:13 17:52:03 88° 253° (WSW) 17:55:54 145.795 - 145.815
RS-15 23 Jan 17:48:29 17:59:59 67° 244° (WSW) 18:10:53 29.354- 29.394
LilacSat-2 23 Jan 17:49:59 17:53:50 77° 259° (W) 17:57:42 437.200
DOVE 4 23 Jan 17:50:06 17:52:08 13° 269° (W) 17:54:08 437.250
CUTE 1.7 + AOD 2 23 Jan 17:54:22 17:58:05 30° 69° (ENE) 18:01:48 437.475
ITUPSAT 1 23 Jan 18:08:59 18:09:14 10° 303° (WNW) 18:09:29 437.325
KAITUO 1B 23 Jan 18:14:26 18:18:09 59° 259° (W) 18:21:52 145.475/437.950
BEESAT 3 23 Jan 18:14:38 18:18:33 70° 238° (WSW) 18:22:22 437.485
NO-84 23 Jan 18:16:10 18:18:11 16° 336° (NNW) 18:20:10 435.350 FM
NUDT-PHONESAT 23 Jan 18:19:42 18:23:22 54° 261° (W) 18:27:01 437.300
CUBESAT XI-V 23 Jan 18:20:23 18:22:27 13° 300° (WNW) 18:24:31 437.345
XW-2F 23 Jan 18:21:54 18:25:25 36° 262° (W) 18:28:58 145.980 - 146.000
XW-2D 23 Jan 18:34:53 18:37:59 23° 265° (W) 18:41:06 145.860 - 145.880
UWE-3 23 Jan 18:36:52 18:40:51 32° 69° (ENE) 18:44:57 435.000/436.395/437.385
CUBEBUG 2 23 Jan 18:37:39 18:41:59 57° 73° (ENE) 18:46:29 437.445
HO-68 23 Jan 18:41:33 18:48:43 82° 255° (WSW) 18:55:55 435.675
AAUSAT CUBESAT 2 23 Jan 18:43:29 18:46:55 26° 69° (ENE) 18:50:21 437.432
XW-2B 23 Jan 18:53:30 18:55:51 16° 268° (W) 18:58:13 145.730 - 145.750
ZACube-1 23 Jan 18:53:46 18:57:31 26° 67° (ENE) 19:01:18 437.345
AO-73 23 Jan 18:58:36 19:02:18 26° 67° (ENE) 19:06:04 145.935
PCSat 23 Jan 18:59:17 19:04:42 72° 242° (WSW) 19:10:05 145.827
AO-85 23 Jan 19:08:23 19:12:25 25° 43° (NE) 19:16:40 145.980
BEESAT 2 23 Jan 19:10:11 19:14:11 69° 240° (WSW) 19:18:07 435.950
SEEDS 23 Jan 19:10:42 19:14:53 65° 259° (W) 19:19:04 437.485
KKS-1 23 Jan 19:14:22 19:17:42 21° 295° (WNW) 19:21:02 437.445
STRAND 1 23 Jan 19:15:37 19:19:55 26° 95° (E) 19:24:13 437.568
CUTE-I 23 Jan 19:15:59 19:19:49 20° 268° (W) 19:23:39 437.470
STARS 23 Jan 19:20:36 19:24:45 41° 290° (WNW) 19:28:53 437.465
XW-2A 23 Jan 19:24:54 19:28:16 61° 75° (ENE) 19:31:39 145.665 - 145.685
Oscar 11 23 Jan 19:28:10 19:32:02 32° 69° (ENE) 19:35:54 .
CUTE 1.7 + AOD 2 23 Jan 19:30:24 19:33:54 24° 266° (W) 19:37:24 437.475
nSIGHT-1 23 Jan 19:37:54 19:40:52 39° 140° (SE) 19:43:51 .
ISS 23 Jan 20:03:52 20:07:01 47° 141° (SE) 20:10:10 437.550
RS-15 23 Jan 20:04:51 20:09:48 14° 266° (W) 20:14:42 29.354- 29.394
UWE-3 23 Jan 20:13:35 20:17:18 26° 266° (W) 20:21:08 435.000/436.395/437.385
CUBEBUG 2 23 Jan 20:16:35 20:19:00 14° 271° (W) 20:21:27 437.445
AAUSAT CUBESAT 2 23 Jan 20:18:46 20:22:16 27° 265° (W) 20:25:47 437.432
DELFI C3 23 Jan 20:25:23 20:28:29 23° 68° (ENE) 20:31:35 145.870
Max Valier Satellite 23 Jan 20:25:41 20:27:50 15° 65° (ENE) 20:30:01 145.860
FO-29 23 Jan 20:29:12 20:34:16 53° 100° (E) 20:39:27 435.910
ZACube-1 23 Jan 20:29:37 20:33:38 32° 264° (W) 20:37:44 437.345
HO-68 23 Jan 20:33:51 20:37:28 14° 273° (W) 20:41:05 435.675
AO-73 23 Jan 20:34:21 20:38:22 32° 264° (W) 20:42:28 145.935
EO-88 23 Jan 20:37:11 20:38:55 13° 65° (ENE) 20:40:39 145.990 - 145.960
AO-85 23 Jan 20:48:16 20:53:10 58° 241° (WSW) 20:58:20 145.980
STRAND 1 23 Jan 20:54:25 20:59:11 40° 292° (WNW) 21:03:57 437.568
Oscar 11 23 Jan 21:04:39 21:08:11 24° 266° (W) 21:11:44 .
TIGRISAT 23 Jan 21:08:29 21:10:54 14° 89° (E) 21:13:19 435.000
nSIGHT-1 23 Jan 21:14:10 21:17:04 32° 337° (NNW) 21:19:58 .
UNISAT 6 23 Jan 21:23:42 21:27:21 22° 93° (E) 21:30:57 437.425
NO-84 23 Jan 21:33:08 21:34:38 13° 20° (NNE) 21:36:08 435.350 FM
ISS 23 Jan 21:40:39 21:43:36 30° 340° (NNW) 21:46:33 437.550
LO-87 23 Jan 21:46:51 21:47:48 11° 63° (ENE) 21:48:44 145.935 - 145.965
Max Valier Satellite 23 Jan 21:57:46 22:01:18 40° 262° (W) 22:04:51 145.860
DELFI C3 23 Jan 21:59:45 22:03:06 27° 265° (W) 22:06:27 145.870
EO-88 23 Jan 22:08:38 22:12:09 45° 261° (W) 22:15:41 145.990 - 145.960
ESTCUBE 1 23 Jan 22:12:08 22:15:38 23° 66° (ENE) 22:19:08 437.505/2401.250
PRISM 23 Jan 22:12:17 22:14:05 13° 91° (E) 22:15:52 437.425
FO-29 23 Jan 22:15:22 22:19:02 20° 298° (WNW) 22:22:43 435.910
YUBILEINY 23 Jan 22:17:52 22:25:40 37° 85° (E) 22:33:27 435.215
AIST 2D 23 Jan 22:42:49 22:43:59 11° 91° (E) 22:45:10 435.315
TIGRISAT 23 Jan 22:43:20 22:48:00 65° 286° (WNW) 22:52:38 435.000
nSIGHT-1 23 Jan 22:51:42 22:53:54 17° 358° (N) 22:56:07 .
UNISAT 6 23 Jan 22:59:45 23:04:10 41° 290° (WNW) 23:08:33 437.425
SPROUT 23 Jan 23:05:03 23:08:00 19° 65° (ENE) 23:10:57 437.525
NO-84 23 Jan 23:09:22 23:12:11 78° 39° (NE) 23:15:05 435.350 FM
QB50P2 23 Jan 23:14:32 23:15:20 10° 89° (E) 23:16:07 145.880/145.840
LO-87 23 Jan 23:17:13 23:20:42 53° 260° (W) 23:24:14 145.935 - 145.965
ISS 23 Jan 23:18:28 23:20:48 18° 359° (N) 23:23:08 437.550
VELOX 1 23 Jan 23:33:27 23:36:45 21° 65° (ENE) 23:40:03 145.980
DUCHIFAT 1 23 Jan 23:37:36 23:39:34 13° 90° (E) 23:41:31 145.980
EO-79 23 Jan 23:42:09 23:45:18 20° 93° (E) 23:48:25 145.935-145.965
PRISM 23 Jan 23:45:40 23:49:40 54° 287° (WNW) 23:53:39 437.425
O/OREOS (USA 219) 23 Jan 23:46:47 23:50:52 35° 106° (ESE) 23:54:58 437.305
ESTCUBE 1 23 Jan 23:47:59 23:52:12 38° 262° (W) 23:56:26 437.505/2401.250
YUBILEINY 24 Jan 00:13:41 00:22:10 51° 285° (WNW) 00:30:42 435.215
AIST 2D 24 Jan 00:14:04 00:17:22 41° 287° (WNW) 00:20:38 435.315
POLYITAN 1 24 Jan 00:17:20 00:21:29 46° 99° (E) 00:25:36 437.675
nSIGHT-1 24 Jan 00:28:07 00:30:50 25° 18° (NNE) 00:33:33 .
NANOSAT C BR1 24 Jan 00:29:38 00:33:51 56° 100° (E) 00:38:02 145.865
SPROUT 24 Jan 00:39:31 00:43:33 42° 262° (W) 00:47:38 437.525
AO-91 24 Jan 00:39:56 00:41:47 12° 91° (E) 00:43:41 145.960
QB50P2 24 Jan 00:47:18 00:51:35 72° 286° (WNW) 00:55:50 145.880/145.840
ISS 24 Jan 00:55:07 00:58:01 28° 19° (NNE) 01:00:55 437.550
UKube-1 24 Jan 00:56:01 00:59:06 19° 64° (ENE) 01:02:11 .
Oscar 19 24 Jan 00:59:53 01:03:07 17° 91° (E) 01:06:21 437.125/150
50 SAT 24 Jan 01:05:34 01:08:11 26° 71° (ENE) 01:10:50 437.505
VELOX 1 24 Jan 01:08:52 01:12:56 38° 262° (W) 01:17:03 145.980
DUCHIFAT 1 24 Jan 01:11:22 01:15:34 58° 287° (WNW) 01:19:44 145.980
Gurwin Techsat 1B 24 Jan 01:12:46 01:16:11 17° 91° (E) 01:19:35 435.225
DX 1 24 Jan 01:13:57 01:18:06 47° 71° (ENE) 01:22:16 434.975-435.025
EO-79 24 Jan 01:17:12 01:21:10 38° 290° (WNW) 01:25:07 145.935-145.965
O/OREOS (USA 219) 24 Jan 01:26:37 01:30:20 25° 303° (WNW) 01:34:04 437.305
POLYITAN 1 24 Jan 01:54:04 01:56:53 17° 296° (WNW) 01:59:41 437.675
MOZHAYETS 4 24 Jan 01:56:27 02:00:14 25° 66° (ENE) 02:04:02
BUGSAT 1 24 Jan 01:59:04 02:03:19 76° 286° (WNW) 02:07:33 437.445
ITUPSAT 1 24 Jan 01:59:10 02:02:15 17° 61° (ENE) 02:05:20 437.325
nSIGHT-1 24 Jan 02:04:04 02:07:13 67° 216° (SW) 02:10:23 .
NANOSAT C BR1 24 Jan 02:06:43 02:09:05 15° 297° (WNW) 02:11:26 145.865
AO-91 24 Jan 02:13:57 02:18:34 79° 284° (WNW) 02:23:37 145.960
AO-7 24 Jan 02:19:28 02:23:10 13° 87° (E) 02:26:51 .
UKube-1 24 Jan 02:30:46 02:34:49 41° 261° (W) 02:38:53 .
ISS 24 Jan 02:31:26 02:34:39 55° 218° (SW) 02:37:52 437.550
BEESAT 24 Jan 02:34:53 02:39:14 37° 69° (ENE) 02:43:37 436.000
Oscar 19 24 Jan 02:37:46 02:42:53 62° 288° (WNW) 02:47:56 437.125/150
50 SAT 24 Jan 02:38:15 02:39:55 14° 266° (W) 02:41:36 437.505
Gurwin Techsat 1B 24 Jan 02:51:18 02:56:34 64° 288° (WNW) 03:01:48 435.225
DX 1 24 Jan 02:51:51 02:54:32 16° 268° (W) 02:57:13 434.975-435.025
FALCONSAT 3 24 Jan 03:04:48 03:07:02 15° 162° (SSE) 03:09:15 435.103
MOZHAYETS 4 24 Jan 03:32:59 03:37:12 35° 263° (W) 03:41:29
ITUPSAT 1 24 Jan 03:34:53 03:39:35 59° 259° (WSW) 03:44:20 437.325
CUBESAT XI-V 24 Jan 03:44:46 03:49:27 80° 76° (ENE) 03:54:09 437.345
ITAMSAT 1 24 Jan 03:51:41 03:56:25 35° 97° (E) 04:01:09 435.822/435.867
DOVE 4 24 Jan 04:08:25 04:10:36 13° 91° (E) 04:12:49 437.250
AO-7 24 Jan 04:08:57 04:17:21 72° 106° (ESE) 04:25:39 .
BEESAT 24 Jan 04:13:10 04:17:04 25° 265° (W) 04:21:01 436.000
SO-50 24 Jan 04:19:09 04:22:50 26° 114° (ESE) 04:26:37 436.795
KKS-1 24 Jan 04:35:54 04:40:02 42° 71° (ENE) 04:44:13 437.445
FALCONSAT 3 24 Jan 04:42:26 04:45:28 24° 177° (S) 04:48:31 435.103
STARS 24 Jan 04:42:36 04:45:48 20° 64° (ENE) 04:49:00 437.465
M-CUBED/EXP-1 PRIME 24 Jan 05:10:11 05:12:54 23° 101° (E) 05:15:34 437.505
LilacSat-2 24 Jan 05:24:57 05:25:22 10° 89° (E) 05:25:48 437.200
CUBESAT XI-V 24 Jan 05:26:16 05:27:22 11° 272° (W) 05:28:28 437.345
ITAMSAT 1 24 Jan 05:31:15 05:35:47 31° 294° (WNW) 05:40:19 435.822/435.867
DOVE 4 24 Jan 05:44:14 05:48:36 62° 285° (WNW) 05:53:12 437.250
KAITUO 1B 24 Jan 05:46:08 05:47:28 12° 90° (E) 05:48:50 145.475/437.950
NUDT-PHONESAT 24 Jan 05:50:10 05:51:41 12° 91° (E) 05:53:12 437.300
CUTE-I 24 Jan 05:51:04 05:54:54 20° 92° (E) 05:58:45 437.470
XW-2F 24 Jan 05:53:07 05:55:52 19° 94° (E) 05:58:34 145.980 - 146.000
SO-50 24 Jan 05:58:57 06:03:07 38° 312° (NW) 06:07:23 436.795
AO-7 24 Jan 06:02:34 06:09:26 30° 306° (NW) 06:16:16 .
RS-15 24 Jan 06:04:21 06:12:05 20° 97° (E) 06:19:45 29.354- 29.394
XW-2D 24 Jan 06:05:35 06:08:57 30° 97° (E) 06:12:16 145.860 - 145.880
HO-68 24 Jan 06:09:43 06:14:22 18° 90° (E) 06:19:00 435.675
KKS-1 24 Jan 06:13:38 06:16:46 19° 267° (W) 06:19:56 437.445
STARS 24 Jan 06:17:45 06:21:51 40° 262° (W) 06:25:59 437.465
FALCONSAT 3 24 Jan 06:21:17 06:23:59 19° 193° (SSW) 06:26:41 435.103
XW-2B 24 Jan 06:23:07 06:26:47 48° 100° (E) 06:30:23 145.730 - 145.750
CUBEBUG 2 24 Jan 06:29:07 06:31:15 13° 88° (E) 06:33:20 437.445
STRAND 1 24 Jan 06:32:14 06:36:58 41° 69° (ENE) 06:41:45 437.568
FO-29 24 Jan 06:42:32 06:47:57 29° 66° (ENE) 06:52:53 435.910
M-CUBED/EXP-1 PRIME 24 Jan 06:44:48 06:47:12 19° 299° (WNW) 06:49:33 437.505
XW-2C 24 Jan 06:53:41 06:57:25 67° 285° (WNW) 07:01:06 145.795 - 145.815
SEEDS 24 Jan 06:54:08 06:57:06 19° 93° (E) 07:00:03 437.485
LilacSat-2 24 Jan 06:56:18 07:00:00 56° 286° (WNW) 07:03:40 437.200
CUTE 1.7 + AOD 2 24 Jan 07:13:12 07:17:19 51° 99° (E) 07:21:24 437.475
KAITUO 1B 24 Jan 07:18:09 07:21:43 46° 286° (WNW) 07:25:14 145.475/437.950
NUDT-PHONESAT 24 Jan 07:22:15 07:25:46 44° 287° (WNW) 07:29:13 437.300
XW-2F 24 Jan 07:26:44 07:29:59 29° 290° (WNW) 07:33:11 145.980 - 146.000
CUTE-I 24 Jan 07:30:05 07:35:17 55° 289° (WNW) 07:40:28 437.470
XW-2D 24 Jan 07:40:12 07:42:53 19° 293° (WNW) 07:45:34 145.860 - 145.880
HO-68 24 Jan 07:55:43 08:02:54 84° 287° (WNW) 08:10:04 435.675
XW-2B 24 Jan 07:58:46 08:00:31 13° 296° (WNW) 08:02:16 145.730 - 145.750
AAUSAT CUBESAT 2 24 Jan 07:58:55 08:02:49 40° 98° (E) 08:06:41 437.432
UWE-3 24 Jan 08:01:04 08:05:42 63° 100° (E) 08:10:15 435.000/436.395/437.385
PCSat 24 Jan 08:02:15 08:04:16 12° 102° (ESE) 08:06:17 145.827
CUBEBUG 2 24 Jan 08:03:34 08:08:20 72° 285° (WNW) 08:13:02 437.445
BEESAT 3 24 Jan 08:06:05 08:08:15 14° 110° (ESE) 08:10:24 437.485
TIGRISAT 24 Jan 08:08:25 08:10:44 14° 61° (ENE) 08:13:04 435.000
RS-15 24 Jan 08:10:14 08:22:32 77° 118° (ESE) 08:34:38 29.354- 29.394
STRAND 1 24 Jan 08:12:08 08:16:17 25° 266° (W) 08:20:28 437.568
ZACube-1 24 Jan 08:16:21 08:20:45 46° 98° (E) 08:25:02 437.345
XW-2A 24 Jan 08:17:45 08:21:04 55° 100° (E) 08:24:19 145.665 - 145.685
O/OREOS (USA 219) 24 Jan 08:18:34 08:19:39 11° 47° (NE) 08:20:44 437.305
AO-73 24 Jan 08:20:46 08:25:08 45° 98° (E) 08:29:21 145.935
UNISAT 6 24 Jan 08:23:30 08:26:52 21° 65° (ENE) 08:30:18 437.425
FO-29 24 Jan 08:26:25 08:32:51 48° 260° (W) 08:38:36 435.910
YUBILEINY 24 Jan 08:26:58 08:32:49 19° 60° (ENE) 08:38:36 435.215
SEEDS 24 Jan 08:29:04 08:32:54 37° 289° (WNW) 08:36:43 437.485
Oscar 11 24 Jan 08:49:44 08:54:01 57° 100° (E) 08:58:14 .
CUTE 1.7 + AOD 2 24 Jan 08:50:17 08:52:43 15° 296° (WNW) 08:55:08 437.475
BEESAT 2 24 Jan 09:03:07 09:05:30 15° 110° (ESE) 09:07:52 435.950
PRISM 24 Jan 09:03:19 09:04:31 11° 61° (ENE) 09:05:41 437.425
Max Valier Satellite 24 Jan 09:27:15 09:29:36 16° 92° (E) 09:31:56 145.860
DELFI C3 24 Jan 09:34:47 09:38:19 31° 97° (E) 09:41:51 145.870
AAUSAT CUBESAT 2 24 Jan 09:35:11 09:37:57 18° 295° (WNW) 09:40:42 437.432
EO-88 24 Jan 09:37:13 09:39:03 13° 91° (E) 09:40:51 145.990 - 145.960
UWE-3 24 Jan 09:38:52 09:41:36 16° 298° (WNW) 09:44:19 435.000/436.395/437.385
PCSat 24 Jan 09:41:23 09:46:48 88° 122° (ESE) 09:52:16 145.827
BEESAT 3 24 Jan 09:41:24 09:45:18 55° 307° (NW) 09:49:15 437.485
TIGRISAT 24 Jan 09:42:23 09:46:48 68° 258° (WSW) 09:51:24 435.000
HO-68 24 Jan 09:45:04 09:49:37 18° 307° (NW) 09:54:10 435.675
ZACube-1 24 Jan 09:53:28 09:56:38 19° 296° (WNW) 09:59:46 437.345
O/OREOS (USA 219) 24 Jan 09:55:20 09:59:50 81° 66° (ENE) 10:04:18 437.305
AO-73 24 Jan 09:57:47 10:00:59 19° 296° (WNW) 10:04:07 145.935
UNISAT 6 24 Jan 09:59:04 10:03:17 41° 262° (W) 10:07:37 437.425
YUBILEINY 24 Jan 10:22:15 10:31:02 86° 83° (E) 10:39:44 435.215
RS-15 24 Jan 10:24:44 10:36:10 42° 324° (NW) 10:47:23 29.354- 29.394
Oscar 11 24 Jan 10:27:17 10:29:40 15° 297° (WNW) 10:32:03 .
DUCHIFAT 1 24 Jan 10:30:58 10:32:28 12° 61° (ENE) 10:33:59 145.980
PRISM 24 Jan 10:35:09 10:39:12 70° 259° (WSW) 10:43:15 437.425
EO-79 24 Jan 10:35:44 10:38:31 17° 64° (ENE) 10:41:19 145.935-145.965
BEESAT 2 24 Jan 10:38:51 10:42:46 52° 307° (NW) 10:46:45 435.950
LO-87 24 Jan 10:44:55 10:45:50 11° 90° (E) 10:46:44 145.935 - 145.965
AIST 2D 24 Jan 10:48:13 10:51:42 71° 78° (ENE) 10:55:13 435.315
Max Valier Satellite 24 Jan 11:00:09 11:03:31 33° 289° (WNW) 11:06:50 145.860
AO-85 24 Jan 11:04:01 11:07:38 35° 115° (ESE) 11:11:28 145.980
EO-88 24 Jan 11:09:27 11:12:51 39° 288° (WNW) 11:16:14 145.990 - 145.960
DELFI C3 24 Jan 11:09:56 11:12:51 20° 293° (WNW) 11:15:46 145.870
POLYITAN 1 24 Jan 11:10:24 11:14:21 39° 71° (ENE) 11:18:20 437.675
NANOSAT C BR1 24 Jan 11:22:08 11:26:09 45° 72° (ENE) 11:30:14 145.865
PCSat 24 Jan 11:27:13 11:30:56 18° 320° (NW) 11:34:41 145.827
ESTCUBE 1 24 Jan 11:39:03 11:43:18 40° 98° (E) 11:47:29 437.505/2401.250
QB50P2 24 Jan 11:40:09 11:44:23 87° 257° (WSW) 11:48:41 145.880/145.840
DUCHIFAT 1 24 Jan 12:03:20 12:07:31 72° 258° (WSW) 12:11:45 145.980
EO-79 24 Jan 12:09:51 12:13:54 45° 261° (W) 12:18:01 145.935-145.965
LO-87 24 Jan 12:15:58 12:19:29 49° 287° (WNW) 12:23:00 145.935 - 145.965
Oscar 19 24 Jan 12:17:09 12:21:31 28° 65° (ENE) 12:25:54 437.125/150
YUBILEINY 24 Jan 12:20:52 12:26:37 20° 283° (WNW) 12:32:22 435.215
SPROUT 24 Jan 12:23:58 12:27:43 28° 96° (E) 12:31:27 437.525
Gurwin Techsat 1B 24 Jan 12:34:19 12:38:55 31° 66° (ENE) 12:43:32 435.225
RS-15 24 Jan 12:43:34 12:53:06 25° 358° (N) 13:02:20 29.354- 29.394
AO-85 24 Jan 12:44:40 12:48:06 26° 316° (NW) 12:51:46 145.980
POLYITAN 1 24 Jan 12:47:13 12:50:15 19° 267° (W) 12:53:20 437.675
SO-50 24 Jan 12:48:31 12:52:50 35° 47° (NE) 12:57:12 436.795
BUGSAT 1 24 Jan 12:49:03 12:53:08 83° 76° (ENE) 12:57:19 437.445
VELOX 1 24 Jan 12:57:26 13:01:28 35° 97° (E) 13:05:30 145.980
NANOSAT C BR1 24 Jan 12:59:28 13:02:05 16° 268° (W) 13:04:44 145.865
AO-91 24 Jan 13:12:55 13:16:18 85° 262° (W) 13:19:54 145.960
ESTCUBE 1 24 Jan 13:16:27 13:19:49 21° 295° (WNW) 13:23:10 437.505/2401.250
AO-7 24 Jan 13:18:39 13:25:07 26° 52° (NE) 13:31:36 .
50 SAT 24 Jan 13:50:28 13:52:37 17° 95° (E) 13:54:45 437.505
Oscar 19 24 Jan 13:55:49 14:00:39 39° 262° (W) 14:05:32 437.125/150
SPROUT 24 Jan 13:59:54 14:03:30 26° 292° (WNW) 14:07:05 437.525
